Погода в Сармакове

Россия / Кабардино-Балкарская Республика     43°44′25″N   43°11′43″E
темп.,
°C
ветер,
м/с
пор.,
м/с
влажн.,
%
обл.,
%
осадки,
мм/ч
давл.,
гПа
погр.,
м
24 июля, сб
сб2400:00+17з2290100 0.5 101031
03:00+16зюз2290100 1.8 101222
06:00+16зюз2287100 0.5 101239
09:00+18сз018114 0.5 1012189
12:00+21всв337266 0.8 10121014
15:00+21в117499 3.9 1012628
18:00+19юз2285100 2.9 101330
21:00+18зюз3386100 3.2 101441
25 июля, вс
вс2500:00+16зюз228642 0.0 101416
03:00+18юз2280100 0.0 101414
06:00+18ююз1180100 0.0 101513
09:00+20юв278186 0.2 1015650
12:00+22в677011 0.1 10151023
15:00+23вюв586775 0.4 10151399
18:00+22ююз2273100 0.1 101623
21:00+20ююз22691 0.1 101729
26 июля, пн
пн2600:00+17ююв23830 0.0 101741
03:00+16ююз22830 0.0 101716
06:00+17ю11830 0.0 101827
09:00+21вюв58660 0.0 1018739
12:00+23вюв686178 0.0 10171380
15:00+24юв576156 0.0 10161393
18:00+24юв36703 0.0 1016384
21:00+19в397163 0.1 1018237
27 июля, вт
вт2700:00+17ю336762 0.0 101754
03:00+17ю337821 0.1 101632
06:00+17ю118398 0.0 101879
09:00+20св237296 0.8 1018607
12:00+19ю0174100 0.4 1018297
15:00+18юз3383100 0.8 101864
18:00+14сз6993100 13.0 1020485
21:00+13зюз3489100 17.6 102289
28 июля, ср
ср2800:00+14юз1183100 0.1 102111
03:00+13вюв1189100 0.3 102125
06:00+13в2298100 0.3 1021181
09:00+15ююз23866 0.3 1020345
12:00+20в44674 0.0 10191041
15:00+20в446198 0.1 10191434
18:00+18юв357787 0.1 1019398
21:00+14юз33860 0.1 102030